Date,TemperatureHighF,TemperatureAvgF,TemperatureLowF,DewpointHighF,DewpointAvgF,DewpointLowF,HumidityHigh,HumidityAvg,HumidityLow,PressureMaxIn,PressureMinIn,WindSpeedMaxMPH,WindSpeedAvgMPH,GustSpeedMaxMPH,PrecipitationSumIn
2013-1-1,64.4,57.8,46.8,62.0,55.0,44.8,94,90,85,30.14,29.93,15,3,15,1.02
2013-1-2,46.8,42.1,37.9,44.8,39.1,35.3,94,89,84,30.27,30.11,13,3,13,0.02
2013-1-3,51.4,38.9,32.7,35.3,29.5,26.5,90,70,41,30.42,30.23,12,3,12,0.00
2013-1-4,57.6,42.7,32.5,35.6,29.6,24.2,81,63,32,30.48,30.35,9,2,9,0.00
2013-1-5,52.0,44.5,37.2,41.7,36.7,31.6,90,75,52,30.41,30.25,8,1,8,0.08
2013-1-6,53.2,44.8,37.6,45.2,41.6,34.8,93,88,73,30.25,29.91,10,2,10,0.44
2013-1-7,59.5,43.9,33.3,42.5,36.6,30.4,95,77,46,30.04,29.88,10,1,10,0.00
2013-1-8,61.7,53.0,41.2,56.5,48.7,37.6,92,85,74,29.99,29.79,9,1,9,0.46
2013-1-9,67.5,63.0,58.5,65.5,60.9,56.2,95,93,92,29.97,29.85,10,2,10,2.30
2013-1-10,68.5,64.5,61.5,66.6,62.4,59.5,94,93,89,29.94,29.75,17,3,17,0.96
2013-1-11,69.3,66.0,62.6,67.2,64.1,60.3,95,94,92,29.87,29.77,12,1,12,0.52
2013-1-12,75.2,70.0,68.0,68.8,66.3,64.0,94,88,75,29.82,29.67,15,4,15,0.02
2013-1-13,73.8,62.6,45.5,69.0,58.8,43.3,93,87,83,29.85,29.60,17,5,22,1.46
2013-1-14,45.5,41.2,0.0,43.5,39.6,33.0,96,93,89,29.99,29.85,19,4,19,1.33
2013-1-15,43.5,40.5,38.5,42.2,39.4,37.4,97,96,95,29.91,29.78,8,3,8,0.37
2013-1-16,38.3,35.9,34.5,37.3,33.7,32.4,96,92,91,29.95,29.81,14,4,14,0.27
2013-1-17,53.2,40.0,32.9,38.0,33.0,28.9,93,78,48,30.24,29.93,17,5,17,0.05
2013-1-18,59.7,42.1,32.2,38.6,31.7,26.5,89,70,30,30.34,30.19,9,2,9,0.00
2013-1-19,62.8,45.6,30.0,46.0,37.3,26.5,93,75,50,30.19,30.04,8,1,8,0.00
2013-1-20,67.3,47.9,38.5,46.3,37.0,30.4,87,71,29,30.08,29.80,11,0,11,0.00
2013-1-21,66.4,48.3,33.4,47.1,38.6,29.7,92,72,44,29.90,29.80,10,1,10,0.00
2013-1-22,62.8,46.1,37.8,43.4,35.9,29.6,88,70,42,30.04,29.88,6,1,6,0.00
2013-1-23,71.4,51.4,36.7,49.2,41.6,32.3,92,72,38,30.05,29.93,11,1,11,0.00
2013-1-24,73.0,57.0,43.0,57.6,49.8,39.3,91,78,55,30.00,29.87,11,1,11,0.00
2013-1-25,75.9,60.4,48.6,57.6,52.4,45.9,92,77,49,29.91,29.78,17,2,17,0.00
2013-1-26,72.9,59.5,51.4,59.8,54.3,48.0,91,84,61,29.91,29.84,4,0,4,0.00
2013-1-27,73.9,61.7,54.5,60.1,55.1,51.3,93,80,56,29.95,29.84,17,1,17,0.00
2013-1-28,76.6,65.1,57.7,63.1,59.1,54.2,90,82,55,29.93,29.78,11,2,11,0.00
2013-1-29,79.0,70.6,65.8,67.2,64.5,62.2,91,82,63,29.78,29.43,20,5,20,0.00
2013-1-30,72.1,56.7,35.6,65.8,45.5,29.1,89,68,39,30.24,29.31,27,8,27,1.48
2013-1-31,61.7,44.0,30.6,39.0,29.7,21.9,91,63,22,30.07,29.91,11,2,11,0.00
2013-2-1,62.4,40.8,35.4,38.1,32.9,28.8,86,75,31,30.08,29.89,5,0,5,0.00
2013-2-2,70.0,51.2,33.4,48.6,39.6,27.0,86,67,43,29.92,29.74,13,2,13,0.04
2013-2-3,68.9,51.1,38.8,49.3,38.8,27.2,91,69,22,29.94,29.77,12,1,12,0.01
2013-2-4,58.8,48.8,39.2,49.0,42.0,35.5,89,78,61,29.77,29.59,5,0,5,0.00
2013-2-5,74.3,59.9,53.2,59.5,54.1,48.9,93,82,56,29.69,29.57,8,1,8,0.00
2013-2-6,71.1,59.7,52.5,58.9,55.1,49.3,93,85,64,29.93,29.64,9,1,9,0.21
2013-2-7,69.4,58.0,50.2,58.3,54.7,47.4,93,89,63,29.93,29.47,14,2,14,0.83
2013-2-8,66.6,56.7,50.0,58.6,51.3,45.5,93,83,66,30.07,29.77,11,2,11,0.00
2013-2-9,63.0,48.0,41.4,54.0,43.4,37.8,88,84,70,30.04,29.77,10,1,10,0.00
2013-2-10,70.7,63.9,58.5,68.3,60.8,54.0,93,90,85,29.77,29.57,17,4,17,1.38
2013-2-11,62.8,55.8,52.7,60.7,54.0,50.4,94,93,91,30.04,29.69,19,2,19,1.91
2013-2-12,59.4,55.6,52.9,57.6,54.1,51.5,96,95,93,29.96,29.62,14,3,14,0.94
2013-2-13,54.3,48.1,36.1,52.3,42.6,32.1,93,82,62,29.95,29.72,14,4,14,0.06
2013-2-14,61.2,46.4,32.0,42.1,35.6,29.0,94,69,35,30.02,29.92,8,1,8,0.00
2013-2-15,67.1,49.0,32.2,47.4,36.1,28.8,93,65,33,30.05,29.95,12,2,12,0.00
2013-2-16,52.0,43.3,30.6,36.8,24.3,14.3,75,51,23,30.17,30.03,23,5,23,0.00
2013-2-17,63.1,44.1,27.9,37.5,29.5,21.3,83,60,31,30.22,30.07,11,2,11,0.00
2013-2-18,64.0,53.4,41.9,57.8,46.5,35.8,92,78,60,30.09,29.82,21,4,21,0.38
2013-2-19,64.6,54.6,39.4,58.1,39.5,24.3,92,61,23,30.12,29.82,16,4,16,0.06
2013-2-20,60.3,46.4,35.4,37.1,29.8,22.3,78,55,24,30.14,29.92,13,2,13,0.00
2013-2-21,68.9,58.3,44.4,65.9,48.5,29.3,92,71,49,30.22,29.64,17,5,17,0.08
2013-2-22,63.9,58.6,53.2,59.0,53.0,48.3,91,82,58,30.14,30.00,11,2,11,0.47
2013-2-23,62.6,55.2,45.7,51.2,48.6,42.0,92,79,63,30.10,29.99,8,2,8,0.00
2013-2-24,72.9,55.2,38.8,55.2,45.4,36.7,93,73,37,30.13,29.85,14,2,14,0.37
2013-2-25,66.7,61.5,55.2,61.8,58.1,46.2,92,89,73,29.92,29.65,15,4,15,0.57
2013-2-26,58.5,48.9,38.7,46.2,36.8,33.4,87,64,44,30.13,29.75,21,6,21,0.00
2013-2-27,70.3,56.8,35.6,46.1,38.7,31.8,92,54,28,30.25,30.12,14,4,14,0.00
2013-2-28,52.3,46.1,37.2,36.3,31.7,25.2,84,59,36,30.26,29.86,14,3,14,0.00
2013-3-1,58.6,43.0,30.7,38.9,29.8,25.4,90,63,31,29.99,29.87,16,3,16,0.00
2013-3-2,44.2,35.3,27.9,31.1,24.6,19.7,85,66,44,30.07,29.96,16,3,16,0.00
2013-3-3,57.6,38.4,23.0,30.9,22.8,16.9,83,58,23,30.09,29.88,12,2,12,0.00
2013-3-4,70.7,54.3,34.3,53.9,43.6,28.5,89,69,47,29.88,29.68,21,4,21,0.00
2013-3-5,72.9,61.2,44.6,60.0,48.5,28.7,85,65,32,29.97,29.67,17,5,17,0.00
2013-3-6,62.6,48.1,33.6,33.4,26.7,22.1,72,46,22,30.10,29.97,14,4,14,0.00
2013-3-7,64.4,43.5,31.6,40.9,31.6,25.9,86,66,31,30.06,29.84,6,1,6,0.00
2013-3-8,73.8,52.4,33.6,45.8,37.6,29.5,91,63,24,29.93,29.79,8,1,8,0.00
2013-3-9,71.4,58.6,44.6,58.2,50.7,42.1,93,76,55,29.80,29.58,13,3,13,0.00
2013-3-10,75.4,68.2,62.1,64.4,61.7,58.2,92,80,66,29.59,29.46,22,5,22,0.00
2013-3-11,68.4,50.3,39.0,64.2,44.0,36.5,97,81,46,29.66,29.49,21,4,21,1.10
2013-3-12,67.3,47.9,31.8,42.5,36.5,30.0,97,70,32,29.85,29.65,13,2,13,0.00
2013-3-13,66.2,50.0,35.6,40.2,30.0,19.0,96,55,17,30.02,29.85,14,3,16,0.00
2013-3-14,70.5,49.3,32.0,43.1,32.6,23.4,93,60,21,30.06,29.90,8,1,8,0.00
2013-3-15,78.3,57.5,39.2,50.4,43.2,37.4,95,64,30,29.92,29.73,12,2,12,0.00
2013-3-16,78.6,61.7,44.6,56.9,51.0,42.1,95,71,44,29.74,29.56,17,3,17,0.00
2013-3-17,79.7,64.2,52.0,64.8,57.3,49.3,96,80,53,29.61,29.44,11,2,11,0.00
2013-3-18,84.9,72.1,63.1,68.7,64.1,57.4,94,78,51,29.56,29.36,21,4,21,0.00
2013-3-19,77.5,61.9,48.4,58.1,45.2,38.3,85,58,27,29.68,29.56,12,3,12,0.00
2013-3-20,68.9,56.8,42.1,44.5,37.0,24.3,72,50,19,29.79,29.64,14,3,14,0.00
2013-3-21,66.7,56.6,39.2,42.7,36.6,29.5,87,50,26,29.69,29.48,8,2,8,0.00
2013-3-22,67.6,60.0,52.5,62.7,53.9,42.7,87,80,67,29.53,29.40,11,2,11,0.06
2013-3-23,70.2,65.1,62.4,66.6,63.1,59.2,97,93,87,29.47,29.20,7,1,7,0.02
2013-3-24,68.2,57.2,43.5,67.0,47.8,27.2,99,75,27,29.64,29.21,23,6,23,0.02
2013-3-25,58.3,44.6,34.0,31.6,25.4,16.4,74,51,23,30.00,29.64,19,6,19,0.00
2013-3-26,55.9,42.7,28.8,30.0,27.1,22.5,87,56,28,30.13,30.01,10,2,10,0.00
2013-3-27,64.2,44.2,27.0,35.9,28.4,22.1,90,60,21,30.17,30.01,10,1,10,0.00
2013-3-28,73.4,51.6,31.8,45.3,36.1,29.4,96,63,21,30.08,29.80,8,1,8,0.00
2013-3-29,77.4,58.6,38.7,54.0,46.7,37.6,97,69,33,29.89,29.75,11,2,11,0.00
2013-3-30,78.1,61.3,47.3,60.5,53.6,45.9,96,78,48,29.78,29.57,13,2,13,0.02
2013-3-31,71.2,59.7,52.3,64.6,57.5,51.0,97,93,76,29.63,29.42,29,1,29,0.33
2013-4-1,77.2,60.8,50.0,59.4,53.3,48.5,99,80,40,29.73,29.52,10,1,10,0.01
2013-4-2,80.1,62.8,45.0,58.3,52.2,44.2,98,72,42,29.70,29.55,10,1,10,0.00
2013-4-3,62.8,55.0,48.7,57.2,52.9,47.9,98,93,79,29.61,29.42,14,3,14,1.19
2013-4-4,54.9,51.0,48.2,52.0,49.1,46.0,99,93,85,29.61,29.49,12,4,12,0.02
2013-4-5,69.1,56.6,45.7,51.3,47.9,43.2,93,74,50,29.75,29.61,12,3,12,0.00
2013-4-6,76.1,57.6,39.2,55.2,48.4,38.4,98,75,45,29.73,29.61,11,2,11,0.00
2013-4-7,78.3,63.6,49.8,59.7,55.3,48.6,97,77,48,29.68,29.56,12,2,12,0.00
2013-4-8,82.6,70.2,61.0,66.2,62.6,58.2,96,79,51,29.61,29.53,17,4,17,0.00
2013-4-9,85.8,75.1,70.0,72.3,68.8,65.6,90,81,60,29.60,29.50,20,4,20,0.02
2013-4-10,84.4,74.9,71.1,70.8,68.7,67.2,91,82,60,29.55,29.40,16,4,16,0.04
2013-4-11,75.4,60.7,49.8,72.2,57.4,48.2,95,89,78,29.44,29.24,16,4,16,0.57
2013-4-12,75.9,56.7,40.1,51.5,45.9,39.8,99,73,31,29.60,29.42,10,2,10,0.01
2013-4-13,82.4,62.5,45.9,55.4,48.3,41.6,97,67,25,29.63,29.46,11,1,11,0.00
2013-4-14,75.9,64.3,57.6,63.7,59.6,54.5,98,86,62,29.52,29.33,10,2,10,2.61
2013-4-15,82.4,68.1,55.4,73.0,64.9,54.6,98,90,71,29.57,29.40,10,2,10,0.01
2013-4-16,85.8,76.6,71.4,73.3,71.1,69.8,96,84,63,29.67,29.55,14,3,14,0.01
2013-4-17,86.7,77.6,70.5,72.0,70.1,68.4,93,79,58,29.68,29.53,14,4,14,0.00
2013-4-18,83.7,74.5,60.1,72.7,69.3,56.5,93,84,67,29.54,29.36,21,5,21,0.12
2013-4-19,61.9,51.6,42.8,56.5,44.2,39.8,94,77,45,29.77,29.45,18,4,18,0.39
2013-4-20,72.1,53.1,35.1,47.5,40.8,33.2,97,69,32,29.85,29.70,9,1,9,0.00
2013-4-21,76.3,57.8,41.2,52.0,45.3,39.6,96,68,33,29.82,29.68,11,2,11,0.00
2013-4-22,82.2,63.2,45.0,62.5,53.0,43.5,97,73,41,29.73,29.59,12,2,12,0.00
2013-4-23,83.7,71.5,64.4,66.8,64.2,61.4,92,79,56,29.67,29.55,12,3,12,0.00
2013-4-24,69.8,61.7,53.6,68.5,59.2,51.9,96,92,88,29.80,29.59,15,3,15,0.57
2013-4-25,72.0,57.7,50.0,52.8,49.6,42.9,96,77,38,29.91,29.79,11,2,11,0.00
2013-4-26,81.7,63.6,48.6,64.1,55.6,47.5,97,78,51,29.86,29.78,8,1,8,0.00
2013-4-27,82.4,71.3,63.0,68.7,65.5,60.3,96,82,60,29.78,29.60,11,2,11,0.00
2013-4-28,76.1,71.1,68.0,70.5,67.2,62.7,95,88,66,29.66,29.52,9,2,9,0.06
2013-4-29,85.5,68.1,54.5,65.6,60.3,53.7,98,78,41,29.57,29.46,5,0,5,0.00
2013-4-30,77.5,67.7,59.7,69.5,64.9,58.0,98,91,74,29.52,29.45,8,1,8,0.13
2013-5-1,77.4,68.7,65.3,72.7,66.2,63.1,98,92,78,29.51,29.42,10,2,10,0.11
2013-5-2,76.3,67.6,64.6,69.0,65.1,63.0,97,92,74,29.55,29.45,8,1,8,0.06
2013-5-3,66.7,56.3,41.0,65.9,54.1,39.7,98,92,83,29.62,29.47,14,4,14,0.14
2013-5-4,71.2,53.3,35.6,50.1,42.8,34.6,99,73,33,29.61,29.44,13,2,13,0.00
2013-5-5,63.3,53.8,45.1,49.3,44.5,41.0,95,73,48,29.62,29.45,17,4,17,0.00
2013-5-6,74.8,58.2,42.6,56.2,49.0,41.5,98,75,45,29.61,29.51,22,3,22,0.00
2013-5-7,80.4,64.3,49.5,60.9,54.8,48.6,97,75,44,29.64,29.55,9,1,9,0.00
2013-5-8,84.0,67.6,52.0,66.1,58.4,50.6,97,76,44,29.70,29.61,9,1,9,0.00
2013-5-9,85.1,70.8,56.7,67.4,62.7,55.5,97,77,47,29.71,29.60,12,2,12,0.00
2013-5-10,79.2,68.7,61.7,68.4,64.8,59.8,97,88,64,29.65,29.37,21,3,21,1.17
2013-5-11,77.4,67.8,60.4,68.9,63.9,59.3,98,88,68,29.65,29.52,8,2,8,0.06
2013-5-12,79.9,66.0,53.1,62.2,56.4,46.8,98,74,49,29.75,29.64,13,2,13,0.01
2013-5-13,81.1,62.4,45.5,57.5,49.4,44.2,96,68,32,29.89,29.75,8,1,8,0.00
2013-5-14,86.4,67.9,50.9,62.8,56.9,49.8,97,72,38,29.86,29.73,8,1,8,0.00
2013-5-15,83.8,69.1,54.3,65.7,59.4,52.9,96,74,45,29.79,29.61,11,2,11,0.00
2013-5-16,83.8,72.1,57.4,69.5,63.6,55.8,97,76,49,29.64,29.49,13,2,13,0.01
2013-5-17,86.0,76.3,70.0,72.8,70.2,67.0,96,82,63,29.61,29.52,12,2,12,0.00
2013-5-18,89.6,78.7,71.4,73.2,71.1,68.4,94,79,55,29.93,29.56,10,2,10,0.00
2013-5-19,89.4,78.3,70.2,73.5,71.3,68.3,96,80,56,29.88,29.79,11,2,11,0.00
2013-5-20,90.7,80.7,73.9,73.7,72.3,70.7,93,77,54,29.93,29.76,11,3,11,0.00
2013-5-21,90.1,80.2,73.6,73.6,71.7,68.3,95,77,50,29.93,29.77,13,2,13,0.00
2013-5-22,81.3,72.4,66.7,72.4,68.9,65.6,97,89,69,29.95,29.85,10,2,10,0.00
2013-5-23,89.6,76.4,65.7,74.7,69.9,65.1,98,82,54,30.02,29.92,7,1,7,0.00
2013-5-24,87.4,76.3,68.0,71.6,68.7,65.6,96,79,55,30.14,30.00,8,1,8,0.00
2013-5-25,106.9,69.0,0.0,72.7,61.0,55.7,93,74,34,30.21,29.69,10,1,10,0.00
2013-5-26,85.3,66.0,65.7,64.6,60.5,60.4,83,83,50,29.94,29.86,2,0,2,0.00
2013-5-29,86.5,79.8,74.3,80.5,74.9,73.0,99,85,70,29.93,29.85,11,3,11,0.01
2013-5-30,88.0,77.8,73.2,79.7,74.8,72.4,99,91,66,29.92,29.84,15,3,15,0.00
2013-5-31,91.0,78.1,74.1,77.5,75.2,73.6,99,91,59,29.93,29.84,11,2,11,0.00
2013-6-1,92.3,81.2,74.5,77.3,75.0,71.9,99,83,55,29.89,29.57,9,2,9,0.00
2013-6-2,87.1,73.3,67.6,75.7,71.5,67.4,99,94,65,30.01,29.85,8,1,8,0.07
2013-6-3,90.1,79.9,70.5,77.3,73.6,70.0,99,82,60,29.94,29.84,9,1,9,0.00
2013-6-4,94.1,84.6,74.5,79.3,76.1,72.5,99,77,51,29.93,29.83,8,1,8,0.00
2013-6-5,89.2,77.1,71.6,81.2,75.2,70.7,99,94,69,29.92,29.76,8,1,8,0.43
2013-6-6,89.6,76.0,68.4,78.3,72.1,68.1,99,89,65,29.85,29.75,13,2,13,0.00
2013-6-7,86.5,74.3,68.9,73.3,70.4,68.6,99,89,60,29.99,29.82,11,2,11,0.01
2013-6-8,89.6,76.1,64.8,76.4,70.7,64.5,99,85,54,30.03,29.94,9,1,9,0.00
2013-6-9,91.2,77.1,68.7,77.3,72.4,68.5,99,87,53,30.03,29.93,9,1,9,0.05
2013-6-10,92.7,78.8,68.7,78.1,73.3,68.5,99,85,53,30.07,30.00,10,2,10,0.01
2013-6-11,94.5,81.1,71.4,79.6,74.6,70.7,99,83,49,30.15,30.06,8,1,8,0.00
2013-6-12,94.8,83.9,71.1,79.1,73.8,69.4,99,75,45,30.15,30.05,8,2,8,0.00
2013-6-13,94.5,82.2,70.0,79.2,74.1,69.4,99,79,49,30.11,29.94,11,2,11,0.00
2013-6-14,93.0,81.4,70.2,78.8,74.2,68.1,99,81,50,30.01,29.92,12,2,12,0.00
2013-6-15,95.9,79.1,64.4,75.6,70.1,63.4,99,78,44,30.07,29.98,8,1,8,0.00
2013-6-16,93.9,81.6,70.5,80.6,75.3,70.0,99,83,55,30.10,30.01,9,1,9,0.00
2013-6-17,93.9,82.3,73.0,77.9,74.0,69.3,99,79,47,30.08,29.96,14,2,14,0.00
2013-6-18,92.8,80.6,71.6,77.1,74.1,70.7,99,82,52,30.08,29.93,14,3,14,0.00
2013-6-19,88.0,76.2,70.0,77.5,73.1,69.4,99,91,64,30.10,29.99,8,1,8,0.00
2013-6-20,90.9,76.0,68.9,80.7,72.7,68.6,99,90,60,30.17,30.07,19,1,19,0.00
2013-6-21,93.6,78.5,66.7,80.1,72.9,66.5,99,85,49,30.18,30.10,7,1,7,0.00
2013-6-22,94.1,79.2,69.3,78.3,72.7,69.0,99,83,48,30.17,30.05,13,1,13,0.00
2013-6-23,93.4,79.3,68.7,79.6,73.2,68.5,99,84,51,30.14,30.06,11,1,11,0.00
2013-6-24,91.2,76.9,71.2,79.3,74.0,70.7,99,92,57,30.19,30.09,11,1,14,0.00
2013-6-25,92.5,78.6,70.0,81.9,75.4,69.4,99,91,61,30.17,30.05,8,1,8,0.00
2013-6-26,94.8,81.3,70.5,79.0,74.6,70.0,99,82,49,30.12,30.00,7,1,7,0.00
2013-6-27,95.4,82.5,72.3,79.8,75.8,71.5,99,82,48,30.08,29.97,9,2,9,0.00
2013-6-28,94.6,81.7,72.9,79.5,75.8,72.0,99,84,53,30.00,29.82,22,2,22,0.00
2013-6-29,89.8,76.5,69.6,81.0,73.8,69.2,99,92,69,29.92,29.75,10,2,10,0.00
2013-6-30,91.4,74.9,65.8,75.9,67.6,59.3,99,82,36,29.97,29.78,10,1,10,0.01
2013-7-1,88.9,76.4,63.7,71.2,66.3,62.8,99,75,45,30.05,29.96,11,2,11,0.00
2013-7-2,88.9,75.1,63.3,72.6,68.9,62.5,99,83,44,30.16,30.07,5,0,5,0.00
2013-7-3,91.4,74.5,66.7,73.4,69.8,66.4,99,87,48,30.20,30.10,7,1,7,0.01
2013-7-4,90.1,76.4,67.8,75.8,71.5,67.6,99,87,53,30.16,30.07,8,1,8,0.00
2013-7-5,80.4,74.5,69.3,78.2,73.0,69.0,99,95,87,30.18,30.10,13,1,13,0.00
2013-7-6,92.3,77.2,69.1,80.7,73.0,68.8,99,88,57,30.18,30.10,8,1,8,0.06
2013-7-7,90.5,77.0,73.0,78.8,74.6,72.2,99,93,63,30.26,30.14,6,1,6,1.64
2013-7-8,91.9,78.2,71.2,80.9,74.1,70.7,99,89,57,30.32,30.21,15,1,15,0.48
2013-7-9,92.7,79.8,69.8,80.9,74.4,69.2,99,85,59,30.34,30.22,4,1,4,0.01
2013-7-10,92.8,81.7,73.9,80.9,76.7,73.6,99,86,61,30.26,30.12,9,1,9,0.02
2013-7-11,89.2,73.6,70.0,78.4,72.2,69.4,99,96,66,30.17,30.05,13,1,13,0.99
2013-7-12,94.3,80.0,70.5,78.9,72.8,69.1,99,81,46,30.11,30.01,9,2,9,0.00
2013-7-13,90.1,78.6,67.8,75.5,71.8,67.6,99,81,56,30.11,30.03,9,2,9,0.00
2013-7-14,91.8,76.4,68.5,77.9,72.6,68.3,99,89,57,30.18,30.06,8,1,8,0.00
2013-7-15,90.5,76.1,68.2,79.5,72.6,67.9,99,90,56,30.28,30.15,8,1,8,0.06
2013-7-16,87.4,76.5,71.1,78.3,73.9,70.3,99,92,68,30.34,30.24,13,2,13,0.11
2013-7-17,92.7,76.4,70.9,78.3,73.4,70.3,99,91,59,30.38,30.28,8,1,8,0.00
2013-7-18,91.2,77.6,70.3,76.4,72.5,68.3,99,86,50,30.34,30.17,14,1,17,0.35
2013-7-19,93.7,79.7,69.1,80.0,72.9,68.8,99,82,49,30.23,30.10,10,1,10,0.00
2013-7-20,91.8,77.1,68.9,82.5,73.7,68.6,99,90,58,30.15,30.07,11,1,11,0.21
2013-7-21,89.2,76.4,70.3,80.5,74.2,69.8,99,93,68,30.21,30.13,10,1,10,0.08
2013-7-22,93.2,77.6,70.7,80.7,74.6,70.1,99,91,63,30.21,30.14,12,2,12,0.02
2013-7-23,93.2,81.7,73.2,80.1,75.8,72.4,99,84,55,30.21,30.06,14,2,14,0.01
2013-7-24,90.7,80.6,72.5,78.0,75.2,70.8,99,85,58,30.12,30.03,21,2,21,0.08
2013-7-25,92.7,79.3,70.5,77.3,73.1,69.7,99,83,53,30.20,30.07,8,2,8,0.00
2013-7-26,92.3,82.2,65.1,75.5,72.1,64.8,99,74,50,30.23,30.11,8,1,8,0.00
2013-7-27,83.5,76.8,73.0,80.1,75.8,72.0,99,97,86,30.11,30.00,8,1,8,0.40
2013-7-28,90.0,78.4,71.2,76.9,73.7,70.5,99,87,59,30.17,30.04,8,1,8,0.00
2013-7-29,94.5,81.1,70.3,78.7,74.5,69.8,99,82,52,30.26,30.15,8,1,8,0.00
2013-7-30,93.9,82.1,72.0,80.1,76.0,71.1,99,83,55,30.30,30.21,10,1,10,0.00
2013-7-31,95.5,83.0,74.7,78.2,75.6,72.8,99,81,48,30.26,30.11,8,2,8,0.00
2013-8-1,95.0,77.0,73.2,79.2,75.0,72.4,99,95,53,30.19,30.06,8,1,8,0.44
2013-8-2,96.4,81.8,70.7,81.8,75.5,70.1,99,83,47,30.17,30.08,4,1,4,0.01
2013-8-3,95.7,82.6,72.3,80.9,75.9,71.5,99,82,50,30.23,30.14,7,1,7,0.00
2013-8-4,97.2,83.6,72.5,80.8,75.2,71.6,99,79,45,30.26,30.13,10,1,10,0.00
2013-8-5,96.3,84.1,73.9,79.6,75.7,72.3,99,79,48,30.21,30.10,9,2,9,0.00
2013-8-6,97.5,81.4,73.4,80.0,74.4,71.5,99,82,44,30.17,30.05,8,1,8,0.00
2013-8-7,98.6,84.3,73.2,80.1,74.1,67.9,99,76,38,30.14,30.03,8,1,8,0.00
2013-8-8,99.1,83.9,73.0,79.6,75.2,72.2,99,78,44,30.13,29.51,11,1,11,0.00
2013-8-9,93.2,78.9,73.6,80.6,75.6,73.3,99,91,56,30.19,30.09,11,1,11,0.09
2013-8-10,97.2,80.7,73.9,82.7,75.2,71.0,99,86,44,30.25,30.15,7,1,7,0.12
2013-8-11,93.9,80.9,72.1,81.4,75.0,71.3,99,84,53,30.27,29.85,7,1,9,0.01
2013-8-12,96.6,79.3,71.2,82.0,74.0,70.7,99,86,49,29.91,29.80,24,1,24,0.08
2013-8-13,90.9,76.1,70.7,83.7,74.1,70.1,99,94,66,29.85,29.74,14,2,14,1.55
2013-8-14,84.9,74.7,71.8,79.6,73.4,70.9,99,96,82,29.81,29.72,11,1,11,1.13
2013-8-15,88.9,79.2,70.3,75.7,73.0,69.7,98,83,55,29.81,29.72,7,1,7,0.01
2013-8-16,91.4,78.7,68.4,75.5,71.9,68.1,99,82,50,29.81,29.71,9,2,9,0.00
2013-8-17,85.3,74.5,68.4,74.8,71.1,68.1,99,90,66,29.80,29.75,14,2,14,0.00
2013-8-18,81.1,73.7,69.4,73.8,71.2,69.2,99,92,71,29.83,29.75,14,4,14,0.00
2013-8-19,88.3,76.6,71.6,75.4,72.7,70.7,99,89,60,29.86,29.77,8,1,8,0.00
2013-8-20,93.4,77.3,68.5,78.4,72.6,68.3,99,87,52,29.88,29.78,8,1,8,0.00
2013-8-21,89.4,76.8,70.2,80.5,73.8,69.6,99,91,66,29.94,29.84,9,0,9,0.00
2013-8-22,93.7,80.6,70.3,79.0,73.6,69.8,99,81,52,29.91,29.77,8,1,8,0.00
2013-8-23,92.3,79.5,70.0,77.1,72.7,69.4,99,82,51,29.83,29.74,11,2,11,0.00
2013-8-24,90.0,76.5,70.0,76.5,72.7,69.4,99,89,61,29.92,29.78,10,2,10,0.00
2013-8-25,90.0,78.0,69.1,75.8,72.7,68.8,99,85,58,29.98,29.89,12,2,12,0.00
2013-8-26,91.4,78.4,69.4,74.8,71.5,66.3,99,82,46,30.01,29.90,9,2,9,0.00
2013-8-27,89.1,74.5,62.6,73.2,65.6,61.8,99,78,43,29.94,29.84,11,1,11,0.00
2013-8-28,88.7,72.8,59.9,74.1,65.5,59.6,99,81,47,29.91,29.82,7,1,7,0.00
2013-8-29,91.9,75.3,63.1,73.5,67.7,62.3,99,80,48,29.89,29.79,9,1,9,0.00
2013-8-30,94.6,72.9,64.8,75.9,69.4,64.5,99,90,45,29.85,29.73,5,0,5,0.00
2013-8-31,94.5,79.2,67.1,77.1,71.6,66.8,99,80,48,29.79,29.67,8,1,8,0.00
2013-9-1,95.4,79.7,69.1,79.0,72.7,68.8,99,82,46,29.76,29.66,10,1,10,0.00
2013-9-2,96.1,80.8,70.9,79.4,73.5,70.3,99,81,47,29.79,29.66,11,1,11,0.00
2013-9-3,95.4,76.8,72.3,80.9,74.0,71.1,99,91,48,29.79,29.68,6,1,6,0.00
2013-9-4,95.2,80.5,69.8,78.9,73.2,69.2,99,81,45,29.88,29.75,10,1,10,0.00
2013-9-5,90.7,74.4,70.5,77.5,71.8,70.0,98,92,62,29.96,29.84,7,0,7,0.00
2013-9-6,94.8,78.9,69.4,79.4,72.5,69.2,99,83,50,29.98,29.87,7,1,7,0.00
2013-9-7,94.1,78.3,67.6,77.7,70.7,67.4,99,81,46,29.94,29.83,8,1,8,0.00
2013-9-8,95.7,78.9,64.8,76.9,69.4,64.5,99,77,41,29.89,29.80,6,1,6,0.00
2013-9-9,95.5,72.5,66.4,76.5,68.8,66.1,99,90,44,29.92,29.83,4,0,4,0.00
2013-9-10,95.2,80.3,67.8,76.3,71.5,67.4,99,77,47,29.99,29.89,10,1,10,0.00
2013-9-11,95.2,83.2,69.8,75.5,71.0,67.3,98,70,43,30.00,29.89,10,2,10,0.00
2013-9-12,96.8,79.4,66.2,77.8,67.8,62.9,99,73,33,29.92,29.77,11,1,11,0.00
2013-9-13,95.4,76.9,67.5,81.0,70.1,66.6,99,83,43,29.81,29.67,18,1,18,0.01
2013-9-14,91.4,77.0,67.1,71.6,66.4,60.6,98,73,38,29.84,29.74,9,2,9,0.00
2013-9-15,95.0,78.2,64.2,71.8,67.4,60.9,95,72,45,29.92,29.83,10,1,10,0.00
2013-9-16,94.6,79.5,68.2,75.7,70.8,67.6,99,78,44,29.95,29.85,11,2,11,0.00
2013-9-17,95.7,79.9,67.3,73.5,67.5,63.6,99,71,36,29.95,29.83,11,2,11,0.00
2013-9-18,94.5,76.8,69.3,75.4,71.0,67.4,98,84,50,29.93,29.83,11,1,11,0.01
2013-9-19,92.7,78.1,69.6,77.5,72.5,69.2,99,85,56,29.91,29.81,12,2,12,0.00
2013-9-20,95.2,80.6,72.0,79.4,74.0,71.1,99,82,47,29.86,29.66,12,2,12,0.00
2013-9-21,78.8,73.2,69.4,76.6,72.2,68.9,99,97,88,29.67,29.60,12,2,12,0.01
2013-9-22,83.1,70.8,61.9,69.4,62.7,56.4,99,78,44,29.71,29.62,11,3,11,0.00
2013-9-23,90.0,73.8,59.4,76.9,68.1,58.7,99,84,58,29.72,29.64,7,1,7,0.00
2013-9-24,85.6,76.3,68.2,81.0,74.3,67.9,99,93,77,29.71,29.63,13,1,13,0.00
2013-9-25,90.9,74.2,62.8,75.8,65.5,57.9,99,79,35,29.70,29.62,14,1,14,0.00
2013-9-26,88.5,72.1,58.5,73.2,63.8,58.2,99,79,44,29.80,29.68,12,1,12,0.00
2013-9-27,89.4,74.6,65.3,74.2,68.5,64.7,99,84,50,29.89,29.79,9,1,9,0.00
2013-9-28,88.2,73.6,64.0,69.7,65.6,62.3,99,79,44,29.94,29.85,8,1,8,0.00
2013-9-29,79.0,69.9,60.8,72.5,67.2,60.0,99,91,76,29.91,29.80,5,0,5,0.00
2013-9-30,87.8,73.8,66.6,74.6,69.8,66.0,99,88,59,29.82,29.76,7,1,7,0.00
2013-10-1,88.3,75.1,66.9,74.6,70.7,66.7,99,87,62,29.90,29.81,97,1,97,0.00
2013-10-2,86.4,75.7,70.5,75.8,72.3,69.8,99,90,63,29.92,29.82,7,1,7,0.00
2013-10-3,90.1,77.5,69.3,78.7,72.5,69.0,99,86,53,29.90,29.79,11,1,11,0.00
2013-10-4,92.3,77.5,70.0,76.8,72.0,69.4,99,85,51,29.90,29.80,8,1,8,0.00
2013-10-5,90.0,77.6,69.8,78.2,72.6,69.2,99,86,57,29.93,29.75,9,1,9,0.00
2013-10-6,79.3,69.1,56.3,74.6,62.4,53.4,99,79,66,29.99,29.88,14,4,14,0.00
2013-10-7,76.1,62.8,52.2,56.1,53.4,50.5,97,74,46,30.08,29.97,14,3,14,0.00
2013-10-8,79.0,62.4,52.0,56.8,53.6,51.2,98,77,40,30.08,30.00,13,2,13,0.00
2013-10-9,85.3,65.3,47.5,67.2,58.6,47.2,99,83,46,30.12,30.03,6,1,6,0.00
2013-10-10,81.1,70.4,61.7,71.0,66.6,61.1,99,89,64,30.14,30.01,7,1,7,0.00
2013-10-11,88.3,72.3,61.0,76.6,67.8,60.4,99,88,52,30.08,29.97,5,1,5,0.00
2013-10-12,90.5,74.1,62.6,77.4,68.4,61.8,99,85,44,30.10,30.00,8,1,8,0.00
2013-10-13,89.8,75.7,66.6,74.9,69.3,65.3,99,83,47,30.19,30.07,9,1,9,0.00
2013-10-14,87.4,72.2,63.9,69.5,65.4,62.0,99,82,45,30.15,30.04,7,1,7,0.00
2013-10-15,87.3,73.9,59.9,71.3,66.4,59.6,99,80,49,30.07,29.95,7,1,7,0.00
2013-10-16,82.0,74.0,67.6,73.9,69.8,66.5,98,87,69,30.01,29.92,9,1,9,0.00
2013-10-17,71.6,66.8,57.4,70.9,64.9,56.8,99,94,80,30.04,29.93,12,2,12,0.00
2013-10-18,73.4,62.0,51.4,61.2,56.7,51.2,99,85,55,30.09,29.95,13,1,13,0.00
2013-10-19,74.3,61.5,55.4,73.7,58.1,52.9,99,90,57,30.00,29.82,11,1,11,0.13
2013-10-20,73.9,58.2,47.8,58.3,52.5,47.6,99,84,47,30.03,29.91,8,2,8,0.00
2013-10-21,72.0,59.8,47.1,63.9,56.8,46.9,99,91,71,30.00,29.89,6,0,6,0.00
2013-10-22,77.9,64.8,51.8,64.6,59.6,51.3,99,85,53,29.95,29.87,13,2,13,0.00
2013-10-23,75.7,57.5,45.3,57.9,47.4,40.8,99,75,29,30.08,29.95,14,2,14,0.00
2013-10-24,79.9,58.5,41.5,59.1,50.3,41.3,99,79,37,30.17,30.04,8,1,8,0.00
2013-10-25,68.4,55.3,43.0,55.9,44.5,37.5,95,70,34,30.35,30.17,13,3,13,0.00
2013-10-26,76.1,53.8,37.9,54.6,44.2,37.3,99,76,29,30.25,30.09,7,1,7,0.00
2013-10-27,72.3,59.3,46.6,62.1,54.8,46.3,99,87,58,30.09,29.99,4,0,4,0.00
2013-10-28,82.9,65.7,60.1,67.9,62.2,59.0,97,89,54,30.13,30.00,4,0,4,0.00
2013-10-29,81.3,67.5,56.3,69.0,62.3,56.0,99,85,54,30.17,30.08,12,1,12,0.00
2013-10-30,80.2,68.7,60.1,70.9,65.2,59.8,99,90,67,30.14,29.96,8,1,8,0.00
2013-10-31,76.5,70.7,66.2,72.2,69.2,65.9,99,95,86,29.96,29.69,14,2,17,1.05
2013-11-1,77.0,63.7,49.1,66.7,57.1,48.8,99,82,41,29.88,29.76,11,2,11,0.00
2013-11-2,71.8,57.6,46.4,56.8,47.3,39.8,99,73,34,30.11,29.86,14,3,14,0.00
2013-11-3,68.2,52.4,41.5,49.5,43.9,40.5,99,77,43,30.18,29.92,9,2,9,0.00
2013-11-4,72.9,55.3,39.7,57.9,50.6,39.5,99,86,56,30.00,29.90,11,1,11,0.00
2013-11-5,77.0,63.8,54.3,62.5,57.7,53.5,98,82,58,29.97,29.86,11,2,11,0.00
2013-11-6,82.8,66.3,53.2,72.0,63.5,52.7,99,92,64,29.88,29.79,14,1,14,0.14
2013-11-7,65.1,54.3,44.1,64.9,46.9,39.1,99,78,43,30.08,29.85,17,6,17,0.02
2013-11-8,64.6,49.4,38.5,44.8,40.0,36.2,98,74,38,30.09,29.95,17,2,17,0.00
2013-11-9,74.1,55.4,40.5,55.2,49.2,40.2,99,82,48,30.00,29.91,5,1,5,0.00
2013-11-10,72.9,58.2,51.8,56.5,52.9,50.7,98,84,51,30.03,29.96,10,2,10,0.00
2013-11-11,77.0,60.8,41.2,57.4,50.7,40.9,99,74,43,29.99,29.88,6,1,6,0.00
2013-11-12,70.2,49.7,37.2,56.3,43.9,26.6,99,81,55,30.25,29.94,23,5,23,0.00
2013-11-13,57.0,40.8,28.8,30.6,25.0,18.3,88,58,24,30.29,30.15,14,3,14,0.00
2013-11-14,69.1,47.1,27.0,48.1,37.4,23.7,95,72,40,30.15,29.88,7,1,7,0.00
2013-11-15,64.2,58.4,51.4,62.8,55.7,46.6,98,91,77,29.88,29.74,7,1,9,0.27
2013-11-16,76.6,68.0,60.8,70.6,65.8,60.2,99,93,79,29.81,29.69,8,1,8,0.01
2013-11-17,80.1,71.7,68.4,76.7,71.0,68.0,99,98,87,29.71,29.61,8,1,8,0.06
2013-11-18,79.0,66.8,54.1,72.2,54.4,36.7,99,68,22,29.88,29.70,18,4,18,0.00
2013-11-19,64.2,51.9,37.4,41.2,34.0,22.3,88,55,21,29.92,29.82,17,4,17,0.00
2013-11-20,73.0,46.7,34.5,47.2,39.9,32.1,99,80,33,29.87,29.77,5,0,5,0.00
2013-11-21,68.7,60.5,47.3,64.4,59.2,46.5,99,96,85,29.95,29.85,6,2,9,0.00
2013-11-22,70.2,65.3,62.6,68.1,64.4,61.8,99,97,89,30.03,29.89,11,1,12,0.31
2013-11-23,63.7,54.2,47.7,62.8,53.8,47.4,99,99,97,30.03,29.92,14,6,14,0.07
2013-11-24,52.3,46.0,36.7,47.4,37.3,24.3,99,75,35,30.05,29.96,15,7,15,0.01
2013-11-25,46.9,43.0,36.5,46.7,38.6,25.9,99,85,64,29.97,29.57,17,4,17,0.64
2013-11-26,48.7,43.8,38.5,48.5,43.3,38.2,99,98,96,29.73,29.42,19,7,19,0.97
2013-11-27,47.3,36.2,26.4,38.2,29.0,21.6,99,77,44,30.08,29.72,18,5,18,0.01
2013-11-28,32.0,25.7,23.5,27.3,22.4,20.2,91,87,81,30.14,30.03,8,1,8,0.00
2013-11-29,62.1,43.9,23.9,36.5,29.2,21.7,96,63,24,30.19,30.08,8,1,8,0.00
2013-11-30,67.8,40.0,26.4,42.4,30.0,24.2,99,76,22,30.10,29.92,4,1,4,0.00
2013-12-1,71.1,50.6,31.1,55.4,44.6,30.6,99,83,50,29.93,29.66,7,1,7,0.00
2013-12-2,71.1,59.8,51.4,63.5,57.0,50.3,99,91,76,29.66,29.41,7,1,7,0.01
2013-12-3,76.8,65.1,61.5,71.0,63.7,60.8,99,96,68,29.47,29.36,6,1,6,0.01
2013-12-4,80.2,70.2,66.4,71.1,68.1,65.5,99,94,69,29.60,29.47,6,2,6,0.00
2013-12-5,81.9,73.4,69.4,73.0,70.7,69.1,99,91,72,29.68,29.57,9,1,9,0.01
2013-12-6,72.3,55.5,37.2,71.5,53.8,36.2,99,94,78,29.91,29.58,17,4,17,0.15
2013-12-7,37.6,35.7,33.1,37.3,34.7,32.3,99,96,90,30.02,29.91,14,5,14,0.02
2013-12-8,47.1,42.2,37.6,46.9,41.8,37.3,99,98,97,29.92,29.70,8,2,8,2.86
2013-12-9,49.6,46.8,42.3,49.4,46.2,42.0,99,98,97,29.83,29.73,10,3,10,0.11
2013-12-10,49.3,38.7,30.2,40.9,33.6,29.0,99,83,58,30.04,29.80,21,5,21,0.04
2013-12-11,56.8,46.9,29.7,48.7,39.9,28.9,98,78,59,30.10,29.97,11,2,11,0.00
2013-12-12,56.3,40.3,28.4,34.7,28.9,19.9,91,68,26,30.19,30.02,15,3,15,0.00
2013-12-13,61.5,45.3,28.0,53.1,39.3,24.7,93,80,58,30.03,29.58,8,1,8,0.00
2013-12-14,68.5,58.6,44.8,65.0,55.4,41.0,99,89,74,29.77,29.50,16,3,17,0.26
2013-12-15,51.4,41.2,29.7,41.3,34.4,28.3,95,78,57,29.98,29.77,21,4,21,0.00
2013-12-16,63.0,40.0,26.2,43.8,32.2,24.3,99,78,32,30.01,29.88,4,0,4,0.00
2013-12-17,65.8,42.9,28.2,46.8,35.3,26.2,99,79,37,30.00,29.89,10,1,10,0.00
2013-12-18,68.7,45.3,31.8,45.2,37.1,31.0,97,77,39,30.03,29.87,6,1,6,0.00
2013-12-19,70.5,56.7,37.4,59.0,51.5,34.2,97,84,65,29.87,29.69,8,1,9,0.00
2013-12-20,76.6,67.3,59.2,68.7,63.8,56.6,97,89,75,29.73,29.61,8,2,8,0.00
2013-12-21,77.4,72.2,59.9,71.1,68.2,58.8,96,87,77,29.61,29.38,11,4,11,0.26
2013-12-22,64.8,58.8,53.4,60.7,57.3,51.9,99,95,81,29.83,29.49,11,1,11,0.69
2013-12-23,53.4,43.5,40.6,52.0,40.5,33.7,97,90,74,30.04,29.82,17,7,17,0.00
2013-12-24,51.8,38.6,27.9,30.7,27.5,24.2,90,67,40,30.19,30.04,14,3,14,0.00
2013-12-25,48.6,35.1,23.7,32.8,26.7,20.4,92,74,43,30.07,29.96,7,1,8,0.00
2013-12-26,58.8,38.9,29.3,39.6,33.0,27.8,95,81,41,30.05,29.95,7,1,7,0.00
2013-12-27,54.9,45.2,34.2,37.9,35.0,31.3,95,69,45,30.09,29.95,8,2,8,0.00
2013-12-28,48.6,46.5,42.4,47.8,45.1,32.9,99,95,59,29.95,29.62,8,2,9,0.73
2013-12-29,59.7,48.1,38.7,47.7,43.4,37.9,99,86,49,29.80,29.64,11,1,11,0.01
2013-12-30,54.1,46.1,38.1,50.1,43.7,37.9,99,92,77,30.01,29.77,12,1,12,0.00
2013-12-31,46.9,39.5,36.5,39.6,35.8,32.4,92,87,68,30.09,29.96,9,3,10,0.00
2014-1-1,52.9,47.8,41.7,52.1,45.9,39.0,98,93,89,30.09,29.83,6,1,6,0.09
2014-1-2,56.1,48.7,33.3,55.6,40.5,22.2,98,75,42,30.19,29.80,22,5,22,0.07